Home > Weather > Cotonou > Past weeks

Flag for Benin Past Weather in Cotonou, Benin — Yesterday and Last 2 Weeks

Now
86 °F

Scattered clouds.


Feels Like: 97 °F
Forecast: 77 / 85 °F
Wind: 6 mph from South

Location: Cotonou Airport

Current Time: May 30, 2016 at 3:45:56 PM

Latest Report: May 30, 2016 at 3:00 PM


Visibility: N/A

Pressure: 29.83 "Hg

Humidity: 75%

Dew Point: 77 °F

Location of CotonouLocation

Past Weather in Cotonou — Graph

°F

Cotonou Temperature Yesterday

Maximum temperature yesterday: 90 °F (at 1:00 PM)
Minimum temperature yesterday: 79 °F (at 7:00 AM)
Average temperature yesterday: 84 °F

High & Low Weather Summary for the Past Weeks

 TemperatureHumidityPressure
High90 °F (May 15, 2:00 PM)100% (May 19, 5:00 AM)30.01 "Hg (May 19, 5:00 AM)
Low72 °F (May 30, 1:00 AM)59% (May 26, 12:00 PM)29.77 "Hg (May 20, 5:00 PM)
Average82 °F82%29.89 "Hg
* Reported May 15 2:00 PM — May 30 2:00 PM, Cotonou, Weather by CustomWeather, © 2016

Note: Actual official high and low records may vary slightly from our data, if they occured in-between our weather recording intervals... More about our weather records

Advertising

Cotonou Weather History for the Previous 24 Hours

Scroll right to see more
 ConditionsComfort  
Time TempWeatherWind HumidityBarometerVisibility
2:00 PM
Mon, May 30
86 °FScattered clouds.8 mph75%29.83 "HgN/A
1:00 PM86 °FScattered clouds.6 mph70%29.86 "HgN/A
12:00 PM84 °FScattered clouds.2 mph79%29.89 "HgN/A
11:00 AM82 °FScattered clouds.6 mph84%29.89 "HgN/A
10:00 AM79 °FScattered clouds.9 mph89%29.92 "HgN/A
9:00 AM77 °FPassing clouds.6 mph89%29.89 "HgN/A
8:00 AM77 °FPassing clouds.7 mph94%29.89 "HgN/A
7:00 AM75 °FPassing clouds.5 mph94%29.86 "Hg5 mi
6:00 AM75 °FThunderstorms. Passing clouds.6 mph94%29.86 "Hg4 mi
5:00 AM77 °FThunderstorms. Passing clouds.1 mph94%29.83 "Hg4 mi
4:00 AM75 °FThunderstorms. Passing clouds.No wind94%29.83 "Hg2 mi
3:00 AM75 °FThunderstorms. Passing clouds.2 mph94%29.83 "Hg2 mi
2:00 AM73 °FThunderstorms. Passing clouds.8 mph94%29.89 "Hg2 mi
1:00 AM72 °FStrong thunderstorms. Passing clouds.16 mph94%29.95 "Hg1 mi
12:00 AM82 °FPassing clouds.10 mph79%29.92 "HgN/A
11:00 PM
Sun, May 29
82 °FThunderstorms. Passing clouds.14 mph84%29.89 "HgN/A
10:00 PM82 °FThunderstorms. Passing clouds.15 mph84%29.89 "HgN/A
9:00 PM82 °FThunderstorms. Passing clouds.17 mph84%29.89 "HgN/A
8:00 PM82 °FThunderstorms. Passing clouds.15 mph84%29.89 "HgN/A
7:00 PM84 °FThunderstorms. Partly sunny.18 mph79%29.83 "HgN/A
6:00 PM86 °FScattered clouds.18 mph75%29.83 "HgN/A
5:00 PM86 °FScattered clouds.18 mph75%29.83 "HgN/A
4:00 PM88 °FScattered clouds.20 mph70%29.83 "HgN/A
3:00 PM88 °FScattered clouds.18 mph70%29.83 "HgN/A
Weather by CustomWeather, © 2016

See weather overviewHow to use our weather pages